Location: Newark
(45.4422°N, 16.2769°E)
Time: 02:25:38
(UTC+00:00)

Vanguard 1 - All Passes

Search period start: 14 December 2019 00:00
Search period end: 24 December 2019 00:00
Orbit: 651 x 3832 km, 34.3° (Epoch: 11 December)

Date Brightness Start Highest point End Pass type
(mag) Time Alt. Az. Time Alt. Az. Time Alt. Az.
14 Dec - 02:02:54 10° SW 02:24:13 51° SSE 02:43:26 10° E visible
14 Dec - 04:26:39 10° WSW 04:49:26 60° S 05:05:37 10° ESE visible
14 Dec - 06:53:34 10° W 07:13:00 46° SSW 07:25:09 10° SE daylight
14 Dec - 09:23:38 10° W 09:32:58 18° SW 09:39:55 10° SSW daylight
15 Dec - 00:03:48 10° SSW 00:21:06 34° SE 00:39:45 10° E visible
15 Dec - 02:23:29 10° SW 02:45:18 55° SSE 03:04:39 10° E visible
15 Dec - 04:47:57 10° W 05:10:36 59° S 05:26:27 10° ESE visible
15 Dec - 07:15:16 10° W 07:33:37 40° SW 07:45:19 10° SSE daylight
15 Dec - 09:48:02 10° WSW 09:52:55 12° WSW 09:57:06 10° SW daylight
15 Dec - 22:11:03 10° SSE 22:20:05 15° SE 22:30:02 10° E visible
16 Dec - 00:23:25 10° SSW 00:41:44 40° SE 01:01:31 10° E visible
16 Dec - 02:44:17 10° WSW 03:06:30 59° S 03:25:47 10° E visible
16 Dec - 05:09:20 10° W 05:31:41 57° SSW 05:47:10 10° ESE visible
16 Dec - 07:37:08 10° W 07:54:03 33° SW 08:05:14 10° SSE daylight
16 Dec - 22:27:55 10° S 22:40:12 21° SE 22:54:24 10° E visible
17 Dec - 00:43:24 10° SW 01:02:31 46° SSE 01:23:05 10° E visible
17 Dec - 03:05:15 10° WSW 03:27:44 61° S 03:46:50 10° ESE visible
17 Dec - 05:30:47 10° W 05:52:41 53° SSW 06:07:46 10° SE visible
17 Dec - 07:59:17 10° W 08:14:20 27° SW 08:24:45 10° S daylight
17 Dec - 22:46:17 10° S 23:00:25 27° SE 23:17:21 10° E visible
18 Dec - 01:03:42 10° SW 01:23:27 51° SSE 01:44:29 10° E visible
18 Dec - 03:26:21 10° WSW 03:48:59 61° S 04:07:50 10° ESE visible
18 Dec - 05:52:19 10° W 06:13:32 48° SSW 06:28:11 10° SE visible
18 Dec - 08:21:56 10° W 08:34:27 21° SW 08:43:42 10° S daylight
18 Dec - 23:05:25 10° SSW 23:20:47 33° SE 23:39:37 10° E visible
19 Dec - 01:24:14 10° SW 01:44:30 56° SSE 02:05:48 10° E visible
19 Dec - 03:47:33 10° W 04:10:13 60° S 04:28:43 10° ESE visible
19 Dec - 06:13:57 10° W 06:34:14 42° SSW 06:48:23 10° SSE daylight
19 Dec - 08:45:38 10° W 08:54:26 15° SW 09:01:34 10° SSW daylight
19 Dec - 21:13:42 10° SE 21:20:34 13° ESE 21:28:23 10° E visible
19 Dec - 23:25:03 10° SSW 23:41:18 39° SE 00:01:30 10° E visible
20 Dec - 01:44:58 10° WSW 02:05:39 59° SSE 02:27:01 10° E visible
20 Dec - 04:08:50 10° W 04:31:23 58° SSW 04:49:30 10° ESE visible
20 Dec - 06:35:45 10° W 06:54:45 36° SW 07:08:18 10° SSE daylight
20 Dec - 21:30:19 10° SSE 21:40:33 19° SE 21:53:12 10° E visible
20 Dec - 23:45:02 10° SW 00:01:58 45° SSE 00:23:10 10° E visible
21 Dec - 02:05:51 10° WSW 02:26:53 61° S 02:48:11 10° ESE visible
21 Dec - 04:30:12 10° W 04:52:27 54° SSW 05:10:09 10° SE visible
21 Dec - 06:57:49 10° W 07:15:06 30° SW 07:27:50 10° S daylight
21 Dec - 21:48:39 10° S 22:00:39 25° SE 22:16:19 10° E visible
22 Dec - 00:05:19 10° SW 00:22:48 51° SSE 00:44:40 10° E visible
22 Dec - 02:26:52 10° WSW 02:48:09 62° S 03:09:15 10° ESE visible
22 Dec - 04:51:38 10° W 05:13:24 50° SSW 05:30:35 10° SE visible
22 Dec - 07:20:20 10° W 07:35:18 24° SW 07:46:50 10° S daylight
22 Dec - 22:07:48 10° SSW 22:20:54 31° SE 22:38:43 10° E visible
23 Dec - 00:25:48 10° SW 00:43:46 55° SSE 01:06:05 10° E visible
23 Dec - 02:47:58 10° W 03:09:25 61° S 03:30:14 10° ESE visible
23 Dec - 05:13:11 10° W 05:34:11 44° SSW 05:50:48 10° SSE visible
23 Dec - 07:43:43 10° W 07:55:22 18° SW 08:04:55 10° SSW daylight
23 Dec - 20:18:02 10° SE 20:21:32 11° ESE 20:25:20 10° ESE night (unlit)
23 Dec - 22:27:25 10° SSW 22:41:18 38° SE 23:00:42 10° E visible
